Precipitable_Water
0.21 0.24 0.25 0.25 0.26 0.29 0.30 0.31 0.29 0.28 0.27 0.29 0.28 0.30 0.32 0.35 0.36 0.35 0.35 0.42 0.48 0.58 0.58 0.69 0.86 0.92 0.95
0.22 0.24 0.23 0.25 0.27 0.28 0.27 0.25 0.24 0.25 0.25 0.26 0.31 0.35 0.31 0.33 0.36 0.45 0.43 0.42 0.48 0.43 0.45 0.49 0.65 0.81 0.92
0.22 0.24 0.25 0.28 0.27 0.27 0.24 0.22 0.22 0.24 0.28 0.28 0.26 0.30 0.34 0.34 0.39 0.40 0.45 0.44 0.47 0.43 0.48 0.51 0.54 0.68 0.82
0.24 0.25 0.27 0.26 0.28 0.24 0.21 0.20 0.19 0.23 0.25 0.24 0.26 0.27 0.34 0.38 0.40 0.39 0.44 0.44 0.38 0.39 0.45 0.48 0.55 0.63 0.71
0.23 0.25 0.24 0.21 0.20 0.21 0.20 0.20 0.21 0.25 0.23 0.23 0.26 0.27 0.32 0.33 0.33 0.36 0.39 0.39 0.37 0.40 0.45 0.46 0.52 0.61 0.69
0.27 0.24 0.21 0.20 0.20 0.21 0.22 0.21 0.16 0.22 0.22 0.21 0.28 0.27 0.29 0.32 0.36 0.38 0.39 0.40 0.40 0.40 0.40 0.45 0.49 0.51 0.59
0.24 0.23 0.20 0.21 0.24 0.23 0.22 0.18 0.16 0.19 0.25 0.22 0.31 0.30 0.37 0.36 0.34 0.36 0.40 0.42 0.42 0.41 0.44 0.45 0.47 0.50 0.53
0.24 0.22 0.23 0.26 0.26 0.22 0.20 0.21 0.23 0.25 0.29 0.26 0.33 0.34 0.35 0.38 0.35 0.38 0.37 0.41 0.46 0.47 0.48 0.48 0.51 0.50 0.50
0.25 0.24 0.24 0.23 0.22 0.22 0.20 0.21 0.21 0.26 0.30 0.29 0.31 0.32 0.33 0.35 0.35 0.39 0.44 0.43 0.44 0.45 0.43 0.43 0.44 0.47 0.47
0.21 0.20 0.21 0.21 0.23 0.25 0.26 0.24 0.25 0.24 0.29 0.28 0.30 0.32 0.29 0.34 0.39 0.39 0.39 0.45 0.46 0.48 0.48 0.47 0.47 0.48 0.45
0.19 0.20 0.21 0.23 0.26 0.28 0.30 0.29 0.26 0.26 0.31 0.31 0.31 0.32 0.32 0.32 0.37 0.38 0.40 0.47 0.48 0.55 0.63 0.59 0.57 0.53 0.51
0.21 0.22 0.24 0.26 0.29 0.31 0.31 0.32 0.33 0.32 0.34 0.35 0.32 0.32 0.32 0.31 0.32 0.37 0.39 0.46 0.51 0.56 0.61 0.63 0.65 0.66 0.68
0.24 0.26 0.28 0.30 0.31 0.31 0.33 0.34 0.34 0.35 0.36 0.38 0.36 0.35 0.33 0.31 0.31 0.35 0.38 0.45 0.51 0.53 0.56 0.58 0.63 0.63 0.61
0.27 0.28 0.29 0.30 0.30 0.32 0.32 0.33 0.33 0.33 0.39 0.39 0.38 0.36 0.32 0.33 0.35 0.35 0.41 0.39 0.47 0.52 0.57 0.59 0.61 0.65 0.65
0.28 0.28 0.29 0.30 0.31 0.33 0.33 0.34 0.32 0.32 0.32 0.35 0.37 0.37 0.37 0.36 0.35 0.38 0.39 0.43 0.48 0.51 0.54 0.53 0.58 0.61 0.66
0.29 0.30 0.29 0.30 0.31 0.33 0.34 0.34 0.32 0.32 0.32 0.34 0.34 0.34 0.35 0.38 0.40 0.38 0.40 0.42 0.46 0.50 0.52 0.50 0.51 0.58 0.63
0.30 0.30 0.31 0.31 0.31 0.32 0.33 0.33 0.33 0.32 0.31 0.34 0.34 0.33 0.30 0.28 0.36 0.43 0.40 0.43 0.44 0.45 0.47 0.47 0.48 0.53 0.57
Wind_Speed
63 59 58 57 55 54 53 51 51 52 53 53 54 56 57 56 54 53 52 52 53 55 55 55 52 55 56
59 57 55 54 53 52 50 50 51 50 51 54 52 52 54 54 52 51 50 49 50 50 53 55 55 51 52
57 55 53 50 50 48 49 50 50 50 49 50 51 51 50 51 51 50 49 49 48 48 47 51 53 53 49
53 51 49 48 46 48 49 49 49 48 49 48 47 46 46 46 47 47 48 48 48 48 48 47 48 50 49
50 49 46 45 48 49 50 48 46 45 45 42 41 39 40 42 44 45 46 47 48 47 46 45 45 47 47
48 45 46 48 49 47 46 44 43 39 40 37 36 35 34 36 39 42 44 46 47 48 48 48 46 46 47
48 46 49 48 46 44 42 41 38 36 34 32 29 29 28 31 36 40 42 44 45 47 48 48 48 46 46
46 47 47 45 42 41 39 36 33 30 27 25 26 25 29 29 32 34 37 38 41 44 46 47 48 47 46
43 44 42 40 37 34 31 29 26 24 25 26 25 25 26 23 22 22 24 29 33 38 42 45 47 46 44
38 36 34 32 31 28 27 26 25 26 25 25 24 22 19 18 13 17 19 19 22 26 31 35 37 38 39
32 29 28 27 27 27 27 27 27 27 27 25 23 21 17 16 13 12 12 11 12 12 16 24 29 31 32
27 27 28 28 29 29 28 28 27 27 26 24 21 18 15 12 11 8 8 7 6 8 11 15 19 23 24
28 29 31 31 29 28 26 25 23 22 20 19 16 13 12 11 9 7 6 7 8 9 10 12 15 18 20
30 30 27 24 23 22 21 20 17 16 14 11 10 8 7 8 8 8 8 9 9 10 11 13 15 17 19
25 22 21 21 20 20 20 18 14 13 12 10 7 5 3 1 6 9 10 11 12 12 14 15 16 18 21
21 20 19 19 19 19 17 15 13 13 12 11 7 2 3 4 6 9 12 14 14 15 16 17 18 19 21
19 19 19 18 18 17 15 14 13 13 14 13 11 8 7 9 9 10 14 15 15 15 15 17 19 20 22
Wind_Direction
303 302 300 299 297 295 294 293 290 289 286 283 280 272 268 266 263 261 259 257 254 252 250 250 250 249 247
304 303 301 300 298 297 295 294 292 290 288 286 281 276 269 264 261 258 257 256 254 253 250 249 249 250 247
303 303 302 302 300 298 297 297 295 293 290 287 283 277 272 262 259 256 255 254 253 253 251 249 246 247 245
303 303 303 303 301 301 300 299 297 294 292 289 285 279 269 262 256 256 254 252 253 252 249 249 247 243 244
304 303 303 303 303 303 302 301 299 297 294 291 287 280 269 264 258 255 253 251 251 249 247 246 244 242 243
303 303 303 304 305 304 303 303 301 299 297 294 289 283 273 266 258 255 255 252 250 248 247 245 243 243 242
303 303 304 306 305 305 304 302 302 301 300 296 293 286 277 272 267 259 256 252 250 248 245 243 242 242 241
302 303 304 305 304 305 304 303 301 301 303 298 300 292 289 279 274 262 257 254 251 246 245 242 241 240 240
306 306 306 306 307 307 306 306 302 303 306 303 303 300 296 284 277 263 258 259 254 249 247 243 239 237 234
311 310 310 310 310 309 308 306 302 302 307 305 304 305 300 291 276 275 266 263 258 253 243 233 227 224 224
316 317 317 316 314 311 308 305 302 299 303 301 300 300 294 288 283 279 260 259 256 239 224 212 212 213 218
321 321 320 318 315 312 308 304 300 299 301 298 294 290 288 283 285 272 259 244 211 191 180 180 187 197 203
322 321 320 319 317 316 315 312 309 305 303 298 291 287 279 273 266 256 213 181 169 168 168 176 180 184 185
323 324 326 330 331 332 331 329 326 324 324 318 305 289 279 264 238 213 190 176 170 161 154 157 163 165 166
333 336 338 341 342 343 343 340 338 343 343 336 319 293 266 288 193 185 175 168 162 159 149 145 146 151 156
343 345 346 348 348 351 356 5 10 11 11 11 5 358 188 158 131 160 161 160 156 151 149 149 146 148 152
350 352 354 356 359 4 12 17 21 24 28 30 41 65 98 130 138 130 153 154 153 150 152 153 153 152 151